Regional Weather Roundup
Issued by NWS

Home | Current Version | Previous Version | Text Only | Print | Product List | Glossary Off
Versions: 1 2 3 4 5 6 7 8 9 10 11 12 13 14 15 16 17 18 19 20 21 22 23 24 25 26 27 28

000
ASUS45 KTFX 220110
RWRMT
MONTANA REGIONAL WEATHER ROUNDUP
NATIONAL WEATHER SERVICE GREAT FALLS MT
700 PM MDT MON AUG 21 2017

NOTE: "FAIR" INDICATES FEW OR NO CLOUDS BELOW 12000 FEET WITH NO
SIGNIFICANT WEATHER AND/OR OBSTRUCTIONS TO VISIBILITY.

MTZ001>007-043-220200-
WEST OF THE DIVIDE

CITY           SKY/WX    TMP DP  RH WIND       PRES   REMARKS
KALISPELL      MOSUNNY   79  43  27 S9        30.11F
MISSOULA       SUNNY     82  37  20 N10       30.10F
BUTTE          SUNNY     76  34  21 NW3       30.22F
MULLAN PASS    MOSUNNY   69  34  27 NW5       30.28F
ANACONDA         N/A     72  43  35 N6        30.19F
DEER LODGE       N/A     77  36  22 E5        30.19F
EUREKA           N/A     82  39  21 MISG      30.09F
HAMILTON         N/A     77  45  31 N5        30.12F
LIBBY            N/A     84  37  18 NW3       30.07F
PLAINS           N/A     85  40  20 CALM      30.08F
RONAN            N/A     77  40  26 CALM      30.16F
$$

MTZ008-052>055-220200-
SOUTHWEST MONTANA

CITY           SKY/WX    TMP DP  RH WIND       PRES   REMARKS
BOZEMAN        SUNNY     79  30  16 CALM      30.17S
DILLON         SUNNY     74  45  35 N9        30.17F
W YELLOWSTONE  SUNNY     73  27  17 VRB6      30.28S
ENNIS          SUNNY     77  25  14 N7        30.24F
THREE FORKS      N/A     80  32  17 CALM      30.13F
TWIN BRIDGES     N/A     78  37  22 CALM      30.14F
$$

MTZ009-010-012-014-046-048-049-054-220200-
EAST SLOPES AND CENTRAL MONTANA

CITY           SKY/WX    TMP DP  RH WIND       PRES   REMARKS
CUT BANK       PTSUNNY   73  34  23 SE5       30.15F
GREAT FALLS    CLOUDY    77  34  21 E7        30.14F
MALMSTROM AFB  CLOUDY    77  34  21 E8        30.13F
HELENA         SUNNY     82  35  18 E5        30.12S
AUGUSTA          N/A     74  36  25 E12       30.16F
BOWMANS CRNR     N/A     74  33  23 E12       30.14F
CHOTEAU          N/A     75  36  23 E10       30.16S
FAIRFIELD        N/A     75  35  22 E6        30.14S
POWER            N/A     76  33  20 NE8       30.14F
RAYNESFORD       N/A     75  33  22 CALM      30.17S
ULM              N/A     77  34  20 E9        30.13F
$$

MTZ011-013-016-021-045-047-050-051-220200-
NORTH CENTRAL MONTANA

CITY           SKY/WX    TMP DP  RH WIND       PRES   REMARKS
HAVRE          CLOUDY    76  35  22 NE5       30.13S
LEWISTOWN      SUNNY     73  34  23 N6        30.18F
N BAR RANCH      N/A     72  32  23 NE9       30.23R
CHINOOK          N/A     75  37  25 CALM      30.12F
DENTON           N/A     74  35  23 CALM      30.13F
GEYSER           N/A     74  34  23 E7        30.17F
GRASS RANGE      N/A     73  32  21 NE9       30.14S
JUDITH GAP       N/A     72  36  27 N12       30.20
WINIFRED         N/A     75  33  21 NE10      30.15F
$$

MTZ017>020-022>027-061-062-220200-
NORTHEAST MONTANA

CITY           SKY/WX    TMP DP  RH WIND       PRES   REMARKS
GLASGOW        SUNNY     75  34  22 NW9       30.13S
JORDAN           N/A     75  33  21 CALM      30.14F
SIDNEY         CLEAR     73  36  25 N9        30.12R
WOLF POINT     CLEAR     77  35  21 NW12      30.12S
MALTA          SUNNY     75  36  23 VRB7      30.13S
PLENTYWOOD       N/A     70  28  21 NW12G17   30.12S
SCOBEY           N/A     70  30  22 NW8       30.13R
$$

MTZ028>42-056>058-220200-
SOUTHCENTRAL AND SOUTHEAST MONTANA

CITY           SKY/WX    TMP DP  RH WIND       PRES   REMARKS
BAKER          CLEAR     73  34  23 NW14      30.16R
BILLINGS       MOSUNNY   78  31  17 E9        30.15S
LIVINGSTON     SUNNY     80  32  17 CALM      30.16F
MILES CITY     CLEAR     79  31  17 N8        30.13S
BIG TIMBER     SUNNY     77  36  22 E3        30.19S
EKALAKA          N/A     71  35  26 N7        30.14R
HARLOWTON        N/A     75  33  22 MISG      30.17S
LAUREL           N/A     78  35  21 NE5       30.13F
$$

REGIONAL REPORTS...DAKOTAS

CITY           SKY/WX    TMP DP  RH WIND       PRES   REMARKS
WILLISTON      CLEAR     73  33  23 N12G20    30.11R
MINOT          CLEAR     70  39  32 NW10      30.04S
DICKINSON      CLEAR     70  35  27 N14       30.11R
BEACH            N/A     70  36  28 N12       30.17S
CROSBY           N/A     70  30  23 N13       30.10S
TIOGA            N/A     68  34  28 NW14      30.11S
WATFORD CITY     N/A     72  34  25 NW13      30.10S
BISMARCK       CLEAR     72  40  31 NW10      30.05S
GRAND FORKS    PTCLDY    69  55  60 N25G35    29.90R
FARGO          CLEAR     70  58  65 NW9       29.89S
BUFFALO SD       N/A     74  39  28 N9        30.08S
RAPID CITY     CLEAR     74  39  28 NE12      30.14S
$$

REGIONAL REPORTS...WYOMING/IDAHO/WASHINGTON

CITY           SKY/WX    TMP DP  RH WIND       PRES   REMARKS
GILLETTE       CLEAR     75  32  20 NE9       30.19F
SHERIDAN       SUNNY     78  39  24 W3        30.17S
BUFFALO WY     CLEAR     76  29  17 CALM      30.24R
CODY           SUNNY     71  37  28 N8        30.22S
YELLOWSTONE LA   N/A     66  36  32 CALM      30.37S
IDAHO FALLS    SUNNY     81  31  16 S8        30.16F
SALMON         SUNNY     80  46  30 SW3       30.09F
BOISE          SUNNY     86  38  18 W8        30.04F
SPOKANE        PTSUNNY   84  39  20 CALM      30.08F
$$

REGIONAL REPORTS...ALBERTA

CITY           SKY/WX    TMP DP  RH WIND       PRES   REMARKS
EDMONTON       PTSUNNY   68  52  56 W6        30.06F
CALGARY        CLOUDY    72  41  33 SE7       30.12F
MEDICINE HAT   PTSUNNY   73  39  29 NW3       30.11F
$$

REGIONAL REPORTS...SASKATCHEWAN

CITY           SKY/WX    TMP DP  RH WIND       PRES   REMARKS
SWIFT CURRENT  SUNNY     68  32  26 N6        30.14F
REGINA         PTCLDY    68  34  28 N10G17    30.10S
SASKATOON      MOSUNNY   68  39  34 NW9       30.10S
$$




USA.gov is the U.S. government's official web portal to all federal, state and local government web resources and services.